Weather History for Danville, KY

Change the Weather History Date:

Thursday, February 21, 2013

  Actual Average (KLEX) Record (KLEX)
Temperature  
Mean Temperature 27 °F 38 °F  
Max Temperature 37 °F 47 °F 71 °F (1874)
Min Temperature 17 °F 30 °F -2 °F (1896)
Degree Days  
Heating Degree Days 38 27  
Month to date heating degree days 610  
Since 1 July heating degree days 3393  
Cooling Degree Days 0 0  
Month to date cooling degree days 0  
Year to date cooling degree days 0  
Moisture  
Dew Point 19 °F    
Average Humidity 68    
Maximum Humidity 100    
Minimum Humidity 48    
Precipitation  
Precipitation 0.00 in 0.12 in 2.02 in (1993)
Month to date precipitation 2.38  
Year to date precipitation 5.58  
Snow  
Snow 0.00 in 0.20 in 6.20 in (1929)
Month to date snowfall 3.8  
Since 1 July snowfall 10.5  
Snow Depth -    
Sea Level Pressure  
Sea Level Pressure 30.19 in    
Wind  
Wind Speed 6 mph (ENE)    
Max Wind Speed 13 mph    
Max Gust Speed 18 mph    
Visibility 10 miles    
Events Rain , Snow    
T = Trace of Precipitation, MM = Missing Value Source: NWS Daily Summary

Daily Weather History Graph

Daily Weather History Graph

Search for Another Location

Airport:

Trip Planner

Search our weather history database for the weather conditions in past years. The results will help you decide how hot, cold, wet, or windy it might be!

Date:

Astronomy

Feb. 21, 2013 Rise Set
Actual Time 7:20 AM EST 6:25 PM EST
Civil Twilight 6:54 AM EST 6:51 PM EST
Nautical Twilight 6:23 AM EST 7:22 PM EST
Astronomical Twilight 5:53 AM EST 7:52 PM EST
Moon 2:42 PM EST (2/21) 4:21 AM EST (2/21)
Length of Visible Light 11h 57m
Length of Day
11h 04m
Waxing Gibbous, 83% of the Moon is Illuminated
Feb 21
Waxing Gibbous
Feb 25
Full
Mar 4
Last Quarter
Mar 11
New
Mar 19
First Quarter

Hourly Weather History & Observations

Time (EST) Temp. Windchill Dew Point Humidity Pressure Visibility Wind Dir Wind Speed Gust Speed Precip Events Conditions
12:15 AM 21.2 °F 14.9 °F 14.0 °F 74% 30.26 in 10.0 mi NNE 4.6 mph - N/A   Clear
12:35 AM 21.2 °F 16.4 °F 14.0 °F 74% 30.26 in 10.0 mi NNE 3.5 mph - N/A   Clear
12:55 AM 21.2 °F 14.9 °F 14.0 °F 74% 30.27 in 10.0 mi North 4.6 mph - N/A   Clear
1:15 AM 21.2 °F 14.9 °F 14.0 °F 74% 30.27 in 10.0 mi NNE 4.6 mph - N/A   Clear
1:35 AM 21.2 °F 14.9 °F 14.0 °F 74% 30.26 in 10.0 mi NE 4.6 mph - N/A   Clear
1:55 AM 21.2 °F 14.9 °F 14.0 °F 74% 30.28 in 10.0 mi NE 4.6 mph - N/A   Clear
2:15 AM 21.2 °F 16.4 °F 14.0 °F 74% 30.29 in 10.0 mi NNE 3.5 mph - N/A   Clear
2:35 AM 21.2 °F 14.9 °F 14.0 °F 74% 30.27 in 10.0 mi NE 4.6 mph - N/A   Clear
2:55 AM 19.4 °F - 14.0 °F 80% 30.28 in 10.0 mi Calm Calm - N/A   Clear
3:15 AM 21.2 °F 16.4 °F 14.0 °F 74% 30.26 in 10.0 mi NE 3.5 mph - N/A   Clear
3:35 AM 21.2 °F 13.6 °F 14.0 °F 74% 30.25 in 10.0 mi NE 5.8 mph - N/A   Clear
3:55 AM 21.2 °F 14.9 °F 14.0 °F 74% 30.25 in 10.0 mi NE 4.6 mph - N/A   Clear
4:15 AM 19.4 °F 12.8 °F 14.0 °F 80% 30.26 in 10.0 mi NE 4.6 mph - N/A   Clear
4:35 AM 19.4 °F 12.8 °F 14.0 °F 80% 30.25 in 10.0 mi ENE 4.6 mph - N/A   Clear
4:55 AM 19.4 °F 12.8 °F 14.0 °F 80% 30.25 in 10.0 mi ENE 4.6 mph - N/A   Clear
5:15 AM 19.4 °F - 14.0 °F 80% 30.26 in 10.0 mi Calm Calm - N/A   Clear
5:35 AM 19.4 °F 14.3 °F 14.0 °F 80% 30.28 in 10.0 mi NE 3.5 mph - N/A   Clear
5:55 AM 19.4 °F 11.5 °F 14.0 °F 80% 30.26 in 10.0 mi NE 5.8 mph - N/A   Clear
6:15 AM 19.4 °F - 14.0 °F 80% 30.28 in 10.0 mi Calm Calm - N/A   Clear
6:35 AM 19.4 °F 11.5 °F 14.0 °F 80% 30.28 in 10.0 mi ENE 5.8 mph - N/A   Clear
7:15 AM 17.6 °F 10.7 °F 14.0 °F 86% 30.28 in 10.0 mi NE 4.6 mph - N/A   Clear
7:35 AM 19.4 °F 12.8 °F 14.0 °F 80% 30.29 in 10.0 mi NE 4.6 mph - N/A   Clear
7:55 AM 19.4 °F 14.3 °F 14.0 °F 80% 30.29 in 10.0 mi ENE 3.5 mph - N/A   Clear
8:15 AM 21.2 °F 16.4 °F 14.0 °F 74% 30.30 in 10.0 mi East 3.5 mph - N/A   Clear
8:35 AM 21.2 °F 14.9 °F 15.8 °F 80% 30.31 in 10.0 mi ENE 4.6 mph - N/A   Clear
8:55 AM 23.0 °F 13.9 °F 15.8 °F 74% 30.30 in 10.0 mi East 8.1 mph - N/A   Clear
9:15 AM 24.8 °F 14.6 °F 17.6 °F 74% 30.30 in 10.0 mi East 10.4 mph - N/A   Clear
9:35 AM 26.6 °F 16.8 °F 17.6 °F 69% 30.29 in 10.0 mi East 10.4 mph - N/A   Clear
9:55 AM 26.6 °F 17.5 °F 17.6 °F 69% 30.28 in 10.0 mi ESE 9.2 mph - N/A   Clear
10:35 AM 28.4 °F 19.1 °F 17.6 °F 64% 30.27 in 10.0 mi ESE 10.4 mph - N/A   Clear
10:55 AM 30.2 °F 21.9 °F 17.6 °F 60% 30.25 in 10.0 mi East 9.2 mph - N/A   Clear
11:15 AM 30.2 °F 21.9 °F 17.6 °F 60% 30.24 in 10.0 mi East 9.2 mph - N/A   Clear
11:35 AM 32.0 °F 23.6 °F 17.6 °F 55% 30.25 in 10.0 mi ESE 10.4 mph - N/A   Clear
11:55 AM 32.0 °F 24.2 °F 17.6 °F 55% 30.25 in 10.0 mi East 9.2 mph - N/A   Clear
12:15 PM 32.0 °F 24.8 °F 17.6 °F 55% 30.24 in 10.0 mi ENE 8.1 mph - N/A   Clear
12:35 PM 33.8 °F 27.0 °F 19.4 °F 56% 30.22 in 10.0 mi ENE 8.1 mph - N/A   Clear
12:55 PM 35.6 °F 28.6 °F 19.4 °F 52% 30.20 in 10.0 mi ENE 9.2 mph - N/A   Clear
1:15 PM 35.6 °F 28.6 °F 19.4 °F 52% 30.17 in 10.0 mi East 9.2 mph - N/A   Clear
1:35 PM 35.6 °F 29.9 °F 21.2 °F 56% 30.20 in 10.0 mi ENE 6.9 mph - N/A   Clear
1:55 PM 35.6 °F 29.2 °F 19.4 °F 52% 30.18 in 10.0 mi ENE 8.1 mph - N/A   Clear
2:15 PM 37.4 °F 30.8 °F 21.2 °F 52% 30.16 in 10.0 mi ENE 9.2 mph 16.1 mph N/A   Clear
2:35 PM 37.4 °F 29.8 °F 21.2 °F 52% 30.15 in 10.0 mi ENE 11.5 mph - N/A   Clear
2:55 PM 37.4 °F 30.8 °F 19.4 °F 48% 30.15 in 10.0 mi East 9.2 mph - N/A   Mostly Cloudy
3:15 PM 37.4 °F 29.3 °F 21.2 °F 52% 30.12 in 10.0 mi East 12.7 mph 16.1 mph N/A   Scattered Clouds
3:35 PM 37.4 °F 29.3 °F 21.2 °F 52% 30.09 in 10.0 mi East 12.7 mph 18.4 mph N/A   Clear
3:55 PM 37.4 °F 30.3 °F 21.2 °F 52% 30.09 in 10.0 mi East 10.4 mph - N/A   Clear
4:15 PM 37.4 °F 30.3 °F 19.4 °F 48% 30.08 in 10.0 mi East 10.4 mph - N/A   Clear
4:35 PM 37.4 °F 31.4 °F 21.2 °F 52% 30.08 in 10.0 mi East 8.1 mph - N/A   Clear
4:55 PM 37.4 °F 30.8 °F 21.2 °F 52% 30.07 in 10.0 mi East 9.2 mph - N/A   Clear
5:15 PM 37.4 °F 30.8 °F 21.2 °F 52% 30.07 in 10.0 mi East 9.2 mph - N/A   Scattered Clouds
5:35 PM 37.4 °F 31.4 °F 19.4 °F 48% 30.07 in 10.0 mi ENE 8.1 mph - N/A   Overcast
5:55 PM 37.4 °F 30.3 °F 19.4 °F 48% 30.08 in 10.0 mi East 10.4 mph - N/A   Overcast
6:15 PM 37.4 °F 30.8 °F 21.2 °F 52% 30.08 in 10.0 mi East 9.2 mph - N/A   Overcast
6:35 PM 37.4 °F 29.3 °F 21.2 °F 52% 30.06 in 10.0 mi ENE 12.7 mph - N/A   Overcast
6:55 PM 37.4 °F 30.8 °F 19.4 °F 48% 30.09 in 10.0 mi ENE 9.2 mph - N/A   Overcast
7:15 PM 37.4 °F 32.8 °F 21.2 °F 52% 30.11 in 10.0 mi North 5.8 mph - N/A   Overcast
7:35 PM 35.6 °F 30.7 °F 21.2 °F 56% 30.13 in 10.0 mi NE 5.8 mph - N/A   Overcast
7:55 PM 35.6 °F 31.7 °F 21.2 °F 56% 30.13 in 10.0 mi NE 4.6 mph - N/A   Overcast
8:15 PM 35.6 °F 29.2 °F 21.2 °F 56% 30.12 in 10.0 mi ENE 8.1 mph - N/A   Overcast
8:35 PM 33.8 °F 26.4 °F 23.0 °F 65% 30.10 in 10.0 mi ENE 9.2 mph - N/A Snow Snow
8:55 PM 33.8 °F 25.8 °F 26.6 °F 75% 30.09 in 5.0 mi ENE 10.4 mph - N/A Rain Rain
9:15 PM 32.0 °F 25.6 °F 28.4 °F 87% 30.10 in 5.0 mi East 6.9 mph - N/A Snow Light Snow
9:35 PM 32.0 °F 24.8 °F 28.4 °F 87% 30.09 in 4.0 mi East 8.1 mph - N/A Snow Light Snow
9:55 PM 32.0 °F 24.2 °F 30.2 °F 93% 30.06 in 3.0 mi East 9.2 mph - N/A Snow Light Snow
10:15 PM 32.0 °F 23.6 °F 30.2 °F 93% 30.05 in 10.0 mi ESE 10.4 mph - N/A   Overcast
10:35 PM 32.0 °F 24.8 °F 30.2 °F 93% 30.04 in 10.0 mi ESE 8.1 mph - N/A   Overcast
10:55 PM 32.0 °F - 30.2 °F 93% 30.08 in 10.0 mi Calm Calm - N/A   Overcast
11:15 PM 32.0 °F 26.4 °F 30.2 °F 93% 30.07 in 4.0 mi ESE 5.8 mph - N/A Snow Light Snow
11:35 PM 32.0 °F 25.6 °F 30.2 °F 93% 30.02 in 4.0 mi ESE 6.9 mph - N/A Snow Light Snow
11:55 PM 32.0 °F 25.6 °F 32.0 °F 100% 30.00 in 10.0 mi SE 6.9 mph - N/A   Overcast